Weather History for Torrington, WY

Change the Weather History Date:

Friday, November 9, 2012

  Actual Average Record
Temperature  
Mean Temperature 41 °F 39 °F  
Max Temperature 51 °F 53 °F 69 °F (2001)
Min Temperature 31 °F 25 °F 14 °F (2001)
Degree Days  
Heating Degree Days 24 26  
Month to date heating degree days 164 219  
Since 1 July heating degree days 790 929  
Cooling Degree Days 0 0  
Month to date cooling degree days 0 0  
Year to date cooling degree days 1021 678  
Moisture  
Dew Point 33 °F    
Average Humidity 76    
Maximum Humidity 100    
Minimum Humidity 52    
Precipitation  
Precipitation 0.00 in 0.01 in 0.01 in (2002)
Month to date precipitation 0.00 0.18  
Year to date precipitation 6.91 13.58  
Sea Level Pressure  
Sea Level Pressure 29.66 in    
Wind  
Wind Speed 14 mph (ESE)    
Max Wind Speed 21 mph    
Max Gust Speed 26 mph    
Visibility 8 miles    
Events      
T = Trace of Precipitation, MM = Missing Value Source: NWS Daily Summary

Daily Weather History Graph

Daily Weather History Graph

Search for Another Location

Airport:

Trip Planner

Search our weather history database for the weather conditions in past years. The results will help you decide how hot, cold, wet, or windy it might be!

Date:

Astronomy

Nov. 09, 2012 Rise Set
Actual Time 6:39 AM MST 4:40 PM MST
Civil Twilight 6:10 AM MST 5:10 PM MST
Nautical Twilight 5:36 AM MST 5:43 PM MST
Astronomical Twilight 5:03 AM MST 6:16 PM MST
Moon 1:36 AM MST (11/9) 1:59 PM MST (11/9)
Length of Visible Light 10h 59m
Length of Day
10h 00m
Waning Crescent, 22% of the Moon is Illuminated
Nov 9
Waning Crescent
Nov 13
New
Nov 20
First Quarter
Nov 28
Full
Dec 6
Last Quarter

Hourly Weather History & Observations

Time (MST) Temp. Windchill Dew Point Humidity Pressure Visibility Wind Dir Wind Speed Gust Speed Precip Events Conditions
12:53 AM 34.0 °F 26.6 °F 32.0 °F 92% 29.77 in 10.0 mi ESE 9.2 mph - N/A   Clear
1:53 AM 34.0 °F 24.6 °F 32.0 °F 92% 29.76 in 10.0 mi ESE 13.8 mph - N/A   Clear
2:53 AM 34.0 °F 25.5 °F 33.1 °F 96% 29.74 in 10.0 mi ESE 11.5 mph - N/A   Clear
3:53 AM 34.0 °F 24.2 °F 33.1 °F 96% 29.73 in 10.0 mi ESE 15.0 mph - N/A   Partly Cloudy
4:21 AM 33.8 °F 24.3 °F 32.0 °F 93% 29.74 in 10.0 mi ESE 13.8 mph - N/A   Mostly Cloudy
4:53 AM 33.1 °F 23.9 °F 32.0 °F 96% 29.74 in 8.0 mi East 12.7 mph - N/A   Unknown
5:11 AM 33.8 °F 23.9 °F 32.0 °F 93% 29.74 in 7.0 mi ESE 15.0 mph - N/A   Overcast
5:53 AM 33.1 °F 22.2 °F 32.0 °F 96% 29.74 in 6.0 mi ESE 17.3 mph - N/A   Overcast
6:53 AM 33.1 °F 23.0 °F 32.0 °F 96% 29.76 in 6.0 mi ESE 15.0 mph 21.9 mph N/A   Overcast
7:53 AM 33.1 °F 25.5 °F 32.0 °F 96% 29.77 in 6.0 mi SE 9.2 mph 21.9 mph N/A   Overcast
8:24 AM 33.8 °F 23.2 °F 32.0 °F 93% 29.73 in 7.0 mi ESE 17.3 mph 21.9 mph N/A   Overcast
8:53 AM 34.0 °F 26.0 °F 32.0 °F 92% 29.78 in 8.0 mi ESE 10.4 mph 19.6 mph N/A   Overcast
9:23 AM 39.2 °F 32.0 °F 33.8 °F 81% 29.73 in 10.0 mi ESE 11.5 mph - N/A   Scattered Clouds
9:53 AM 37.9 °F 30.0 °F 32.0 °F 79% 29.75 in 10.0 mi ESE 12.7 mph - N/A   Clear
10:53 AM 44.1 °F 37.7 °F 33.1 °F 65% 29.71 in 10.0 mi ESE 12.7 mph 19.6 mph N/A   Clear
11:53 AM 44.1 °F 37.7 °F 33.1 °F 65% 29.66 in 10.0 mi East 12.7 mph - N/A   Clear
12:53 PM 48.0 °F - 34.0 °F 58% 29.62 in 10.0 mi ESE 13.8 mph 20.7 mph N/A   Clear
1:53 PM 50.0 °F - 34.0 °F 54% 29.59 in 10.0 mi ESE 13.8 mph - N/A   Clear
2:53 PM 50.0 °F - 34.0 °F 54% 29.57 in 10.0 mi East 17.3 mph - N/A   Clear
3:53 PM 48.0 °F - 35.1 °F 61% 29.57 in 10.0 mi East 15.0 mph 23.0 mph N/A   Clear
4:53 PM 44.1 °F 37.1 °F 34.0 °F 68% 29.58 in 10.0 mi East 15.0 mph 21.9 mph N/A   Clear
5:53 PM 42.1 °F 33.9 °F 34.0 °F 73% 29.59 in 10.0 mi ESE 17.3 mph - N/A   Clear
6:53 PM 39.9 °F 31.4 °F 33.1 °F 77% 29.59 in 10.0 mi East 16.1 mph - N/A   Clear
7:53 PM 37.9 °F 29.2 °F 33.1 °F 83% 29.60 in 9.0 mi ESE 15.0 mph 23.0 mph N/A   Clear
8:53 PM 37.0 °F 28.1 °F 33.1 °F 86% 29.60 in 8.0 mi East 15.0 mph - N/A   Clear
9:53 PM 36.0 °F 27.1 °F 33.1 °F 89% 29.59 in 7.0 mi ESE 13.8 mph - N/A   Clear
10:53 PM 33.1 °F 24.4 °F 30.9 °F 92% 29.54 in 5.0 mi East 11.5 mph - N/A   Clear
11:33 PM 33.8 °F 23.2 °F 32.0 °F 93% 29.53 in 5.0 mi ESE 17.3 mph 21.9 mph N/A   Scattered Clouds
11:38 PM 33.8 °F 24.3 °F 32.0 °F 93% 29.53 in 4.0 mi ESE 13.8 mph 23.0 mph N/A   Mostly Cloudy
11:45 PM 33.8 °F 23.5 °F 32.0 °F 93% 29.53 in 1.8 mi ESE 16.1 mph 23.0 mph N/A   Mostly Cloudy
11:53 PM 33.1 °F 23.9 °F 33.1 °F 100% 29.55 in 1.0 mi East 12.7 mph 23.0 mph N/A   Overcast